• In Germany
  • List of Countries
  • For 7 days
  • Water Temperature
  • Satellite Maps
  • Weather Map
  • Weather Widgets
  • user-avatar
    Login

    Hourly Weather Ischgl

    Today, 26 June, Monday

    Time Temperature Precipitation Wind Pressure Humidity
    00:00 +3°C° 0 mm 1 mps 574 mmHg 92%
    01:00 +3°C° 0 mm 1 mps 574 mmHg 91%
    02:00 +3°C° 0 mm 1 mps 574 mmHg 91%
    03:00 +3°C° 0 mm 1 mps 574 mmHg 91%
    04:00 +3°C° 0 mm 1 mps 574 mmHg 90%
    05:00 +5°C° 0 mm 1 mps 575 mmHg 82%
    06:00 +8°C° 0 mm 1 mps 576 mmHg 73%
    07:00 +9°C° 0 mm 0 mps 578 mmHg 65%
    08:00 +12°C° 0 mm 0 mps 579 mmHg 56%
    09:00 +15°C° 0 mm 1 mps 580 mmHg 47%
    10:00 +19°C° 0 mm 1 mps 581 mmHg 38%
    11:00 +20°C° 0 mm 1 mps 581 mmHg 37%
    12:00 +20°C° 0 mm 1 mps 581 mmHg 36%
    13:00 +21°C° 0 mm 1 mps 581 mmHg 35%
    14:00 +20°C° 0.1 mm 1 mps 581 mmHg 41%
    15:00 +18°C° 0.1 mm 2 mps 580 mmHg 47%
    16:00 +17°C° 0.1 mm 2 mps 579 mmHg 52%
    17:00 +16°C° 0.6 mm 1 mps 579 mmHg 64%
    18:00 +14°C° 0.6 mm 1 mps 578 mmHg 75%
    19:00 +13°C° 0.6 mm 1 mps 577 mmHg 86%
    20:00 +11°C° 0.8 mm 1 mps 577 mmHg 89%
    21:00 +10°C° 0.8 mm 1 mps 576 mmHg 92%
    22:00 +8°C° 0.8 mm 0 mps 576 mmHg 95%
    23:00 +9°C° 0.7 mm 1 mps 576 mmHg 95%

    Tomorrow, 27 June, Tuesday

    Time Temperature Precipitation Wind Pressure Humidity
    00:00 +9°C° 0.7 mm 1 mps 576 mmHg 95%
    01:00 +9°C° 0.7 mm 1 mps 576 mmHg 95%
    02:00 +8°C° 0.4 mm 1 mps 575 mmHg 95%
    03:00 +8°C° 0.4 mm 1 mps 575 mmHg 95%
    04:00 +8°C° 0.4 mm 1 mps 575 mmHg 95%
    05:00 +8°C° 0.4 mm 1 mps 575 mmHg 94%
    06:00 +9°C° 0.4 mm 1 mps 575 mmHg 92%
    07:00 +10°C° 0.4 mm 1 mps 575 mmHg 91%
    08:00 +11°C° 0.2 mm 1 mps 576 mmHg 83%
    09:00 +13°C° 0.2 mm 1 mps 577 mmHg 75%
    10:00 +14°C° 0.2 mm 1 mps 577 mmHg 67%
    11:00 +15°C° 0.4 mm 1 mps 577 mmHg 67%
    12:00 +15°C° 0.4 mm 1 mps 577 mmHg 66%
    13:00 +16°C° 0.4 mm 1 mps 577 mmHg 66%
    14:00 +16°C° 0.8 mm 1 mps 577 mmHg 68%
    15:00 +15°C° 0.8 mm 1 mps 576 mmHg 70%
    16:00 +15°C° 0.8 mm 1 mps 576 mmHg 73%
    17:00 +14°C° 0.5 mm 1 mps 576 mmHg 77%
    18:00 +14°C° 0.5 mm 1 mps 575 mmHg 82%
    19:00 +13°C° 0.5 mm 1 mps 575 mmHg 87%
    20:00 +11°C° 0.2 mm 1 mps 574 mmHg 89%
    21:00 +10°C° 0.2 mm 1 mps 573 mmHg 92%
    22:00 +8°C° 0.2 mm 1 mps 573 mmHg 95%
    23:00 +7°C° 0.1 mm 2 mps 572 mmHg 94%

    Day after tomorrow, 28 June, Wednesday

    Time Temperature Precipitation Wind Pressure Humidity
    00:00 +7°C° 0.1 mm 2 mps 572 mmHg 94%
    01:00 +6°C° 0.1 mm 2 mps 572 mmHg 94%
    02:00 +6°C° 0 mm 2 mps 571 mmHg 94%
    03:00 +6°C° 0 mm 2 mps 571 mmHg 93%
    04:00 +6°C° 0 mm 2 mps 571 mmHg 93%
    05:00 +7°C° 0 mm 2 mps 571 mmHg 90%
    06:00 +8°C° 0 mm 2 mps 571 mmHg 87%
    07:00 +9°C° 0 mm 2 mps 572 mmHg 85%
    08:00 +10°C° 0.4 mm 2 mps 572 mmHg 79%
    09:00 +13°C° 0.4 mm 2 mps 572 mmHg 73%
    10:00 +14°C° 0.4 mm 2 mps 573 mmHg 67%
    11:00 +14°C° 0.9 mm 2 mps 573 mmHg 68%
    12:00 +13°C° 0.9 mm 3 mps 572 mmHg 68%
    13:00 +13°C° 0.9 mm 3 mps 572 mmHg 68%
    14:00 +14°C° 1.7 mm 2 mps 571 mmHg 74%
    15:00 +13°C° 1.7 mm 2 mps 571 mmHg 80%
    16:00 +12°C° 1.7 mm 2 mps 570 mmHg 85%
    17:00 +10°C° 3.3 mm 2 mps 569 mmHg 89%
    18:00 +9°C° 3.3 mm 2 mps 568 mmHg 92%
    19:00 +8°C° 3.3 mm 2 mps 567 mmHg 95%
    20:00 +8°C° 0.9 mm 1 mps 567 mmHg 96%
    21:00 +7°C° 0.9 mm 1 mps 566 mmHg 96%
    22:00 +6°C° 0.9 mm 1 mps 566 mmHg 97%
    23:00 +6°C° 0.2 mm 1 mps 565 mmHg 97%

    29 June, Thursday

    Time Temperature Precipitation Wind Pressure Humidity
    00:00 +6°C° 0.2 mm 1 mps 565 mmHg 97%
    01:00 +6°C° 0.2 mm 1 mps 565 mmHg 97%
    02:00 +6°C° 0.9 mm 1 mps 565 mmHg 97%
    03:00 +5°C° 0.9 mm 1 mps 565 mmHg 97%
    04:00 +5°C° 0.9 mm 1 mps 565 mmHg 98%
    05:00 +5°C° 1.8 mm 1 mps 565 mmHg 97%
    06:00 +5°C° 1.8 mm 1 mps 565 mmHg 97%
    07:00 +5°C° 1.8 mm 1 mps 566 mmHg 97%
    08:00 +5°C° 2 mm 1 mps 566 mmHg 97%
    09:00 +5°C° 2 mm 1 mps 566 mmHg 96%
    10:00 +5°C° 2 mm 1 mps 566 mmHg 96%
    11:00 +6°C° 1.7 mm 1 mps 567 mmHg 96%
    12:00 +6°C° 1.7 mm 1 mps 567 mmHg 95%
    13:00 +6°C° 1.7 mm 1 mps 567 mmHg 95%
    14:00 +6°C° 1.4 mm 1 mps 568 mmHg 94%
    15:00 +6°C° 1.4 mm 1 mps 568 mmHg 93%
    16:00 +6°C° 1.4 mm 1 mps 568 mmHg 92%
    17:00 +5°C° 1.2 mm 1 mps 568 mmHg 93%
    18:00 +5°C° 1.2 mm 1 mps 568 mmHg 95%
    19:00 +4°C° 1.2 mm 1 mps 568 mmHg 96%
    20:00 +4°C° 0.6 mm 1 mps 568 mmHg 96%
    21:00 +3°C° 0.6 mm 1 mps 568 mmHg 96%
    22:00 +2°C° 0.6 mm 1 mps 568 mmHg 95%
    23:00 +2°C° 0.7 mm 1 mps 568 mmHg 95%

    30 June, Friday

    Time Temperature Precipitation Wind Pressure Humidity
    00:00 +2°C° 0.7 mm 1 mps 568 mmHg 95%
    01:00 +2°C° 0.7 mm 1 mps 568 mmHg 95%
    02:00 +1°C° 0.1 mm 1 mps 568 mmHg 95%
    03:00 0°C° 0.1 mm 1 mps 568 mmHg 95%
    04:00 0°C° 0.1 mm 1 mps 567 mmHg 94%
    05:00 +1°C° 0 mm 1 mps 568 mmHg 93%
    06:00 +3°C° 0 mm 1 mps 569 mmHg 91%
    07:00 +4°C° 0 mm 1 mps 570 mmHg 89%
    08:00 +5°C° 0.2 mm 1 mps 571 mmHg 82%
    09:00 +6°C° 0.2 mm 2 mps 572 mmHg 75%
    10:00 +7°C° 0.2 mm 2 mps 572 mmHg 67%
    11:00 +8°C° 0.4 mm 2 mps 573 mmHg 64%
    12:00 +9°C° 0.4 mm 2 mps 573 mmHg 60%
    13:00 +9°C° 0.4 mm 3 mps 573 mmHg 57%
    14:00 +9°C° 0.4 mm 3 mps 573 mmHg 55%
    15:00 +9°C° 0.4 mm 2 mps 573 mmHg 53%
    16:00 +9°C° 0.4 mm 2 mps 573 mmHg 52%
    17:00 +8°C° 0.3 mm 2 mps 573 mmHg 59%
    18:00 +7°C° 0.3 mm 2 mps 572 mmHg 67%
    19:00 +7°C° 0.3 mm 1 mps 572 mmHg 75%
    20:00 +5°C° 0.2 mm 1 mps 571 mmHg 80%
    21:00 +2°C° 0.2 mm 1 mps 570 mmHg 85%
    22:00 0°C° 0.2 mm 1 mps 569 mmHg 90%
    23:00 0°C° 0 mm 1 mps 569 mmHg 89%

    1 July, Saturday

    Time Temperature Precipitation Wind Pressure Humidity
    00:00 -2°C° 0 mm 2 mps 569 mmHg 89%
    01:00 -2°C° 0 mm 2 mps 569 mmHg 88%
    02:00 -1°C° 0 mm 1 mps 568 mmHg 89%
    03:00 -1°C° 0 mm 1 mps 568 mmHg 89%
    04:00 -1°C° 0 mm 1 mps 568 mmHg 90%
    05:00 +1°C° 0 mm 1 mps 569 mmHg 84%
    06:00 +3°C° 0 mm 1 mps 570 mmHg 78%
    07:00 +4°C° 0 mm 0 mps 572 mmHg 73%
    08:00 +6°C° 0.1 mm 1 mps 573 mmHg 68%
    09:00 +8°C° 0.1 mm 1 mps 573 mmHg 63%
    10:00 +9°C° 0.1 mm 1 mps 574 mmHg 59%
    11:00 +8°C° 0.5 mm 2 mps 574 mmHg 63%
    12:00 +8°C° 0.5 mm 2 mps 574 mmHg 67%
    13:00 +8°C° 0.5 mm 2 mps 574 mmHg 71%
    14:00 +7°C° 0.8 mm 2 mps 574 mmHg 75%
    15:00 +7°C° 0.8 mm 2 mps 574 mmHg 79%
    16:00 +6°C° 0.8 mm 2 mps 574 mmHg 84%
    17:00 +5°C° 0.6 mm 2 mps 574 mmHg 87%
    18:00 +5°C° 0.6 mm 2 mps 574 mmHg 89%
    19:00 +4°C° 0.6 mm 2 mps 574 mmHg 92%
    20:00 +4°C° 0.2 mm 2 mps 574 mmHg 94%
    21:00 +3°C° 0.2 mm 2 mps 574 mmHg 95%
    22:00 +3°C° 0.2 mm 1 mps 575 mmHg 97%
    23:00 +3°C° 0 mm 1 mps 574 mmHg 97%
    Show more